Weather History for Cleveland Burke, OH

Change the Weather History Date:

Monday, March 26, 2012

  Actual Average Record
Temperature  
Mean Temperature 42 °F -  
Max Temperature 46 °F 47 °F 82 °F (2007)
Min Temperature 36 °F 34 °F 17 °F (2014)
Degree Days  
Heating Degree Days 24    
Moisture  
Dew Point 28 °F    
Average Humidity 63    
Maximum Humidity 76    
Minimum Humidity 47    
Precipitation  
Precipitation 0.00 in - - ()
Sea Level Pressure  
Sea Level Pressure 30.27 in    
Wind  
Wind Speed 16 mph (North)    
Max Wind Speed 23 mph    
Max Gust Speed 30 mph    
Visibility 10 miles    
Events      
Averages and records for this station are not official NWS values.
T = Trace of Precipitation, MM = Missing Value Source: NWS Daily Summary

Daily Weather History Graph

Daily Weather History Graph

Search for Another Location

Airport:

Trip Planner

Search our weather history database for the weather conditions in past years. The results will help you decide how hot, cold, wet, or windy it might be!

Date:

Astronomy

Mar. 26, 2012 Rise Set
Actual Time 7:19 AM EDT 7:46 PM EDT
Civil Twilight 6:51 AM EDT 8:13 PM EDT
Nautical Twilight 6:18 AM EDT 8:46 PM EDT
Astronomical Twilight 5:45 AM EDT 9:20 PM EDT
Moon 9:04 AM EDT (3/26) 11:58 PM EDT (3/26)
Length of Visible Light 13h 22m
Length of Day
12h 26m
Waxing Crescent, 14% of the Moon is Illuminated
Mar 26
Waxing Crescent
Mar 30
First Quarter
Apr 6
Full
Apr 13
Last Quarter
Apr 21
New

Hourly Weather History & Observations

Time (EDT) Temp. Windchill Dew Point Humidity Pressure Visibility Wind Dir Wind Speed Gust Speed Precip Events Conditions
12:53 AM 46.9 °F - 39.0 °F 74% 30.05 in 10.0 mi NNE 12.7 mph - N/A   Overcast
1:29 AM 44.6 °F 39.2 °F 37.4 °F 76% 30.05 in 10.0 mi NNE 10.4 mph - N/A   Scattered Clouds
1:53 AM 45.0 °F 39.3 °F 37.0 °F 74% 30.07 in 10.0 mi NNE 11.5 mph - N/A   Mostly Cloudy
2:53 AM 43.0 °F 34.0 °F 34.0 °F 71% 30.11 in 10.0 mi North 21.9 mph 28.8 mph N/A   Clear
3:49 AM 41.0 °F 32.2 °F 33.8 °F 76% 30.11 in 10.0 mi North 18.4 mph - N/A   Mostly Cloudy
3:53 AM 41.0 °F 32.5 °F 33.1 °F 73% 30.13 in 10.0 mi NNE 17.3 mph 24.2 mph N/A   Mostly Cloudy
4:53 AM 39.0 °F 29.3 °F 32.0 °F 76% 30.16 in 10.0 mi North 19.6 mph 26.5 mph N/A   Overcast
5:53 AM 39.9 °F 30.5 °F 32.0 °F 73% 30.17 in 10.0 mi North 19.6 mph 29.9 mph N/A   Overcast
6:53 AM 39.9 °F 30.5 °F 32.0 °F 73% 30.20 in 10.0 mi North 19.6 mph 26.5 mph N/A   Overcast
7:53 AM 37.9 °F 27.3 °F 30.0 °F 73% 30.23 in 10.0 mi North 21.9 mph 28.8 mph N/A   Overcast
8:53 AM 37.0 °F 27.0 °F 27.0 °F 67% 30.27 in 10.0 mi North 18.4 mph 29.9 mph N/A   Mostly Cloudy
9:29 AM 37.4 °F 26.4 °F 26.6 °F 65% 30.28 in 10.0 mi North 23.0 mph - N/A   Scattered Clouds
9:53 AM 37.9 °F 27.6 °F 27.0 °F 65% 30.31 in 10.0 mi North 20.7 mph 28.8 mph N/A   Partly Cloudy
10:53 AM 37.9 °F 28.2 °F 26.1 °F 62% 30.33 in 10.0 mi North 18.4 mph - N/A   Scattered Clouds
11:53 AM 39.0 °F 29.9 °F 26.1 °F 60% 30.34 in 10.0 mi North 17.3 mph 24.2 mph N/A   Partly Cloudy
12:53 PM 39.0 °F 29.6 °F 25.0 °F 57% 30.35 in 10.0 mi North 18.4 mph - N/A   Clear
1:53 PM 39.0 °F 30.6 °F 26.1 °F 60% 30.36 in 10.0 mi NNE 15.0 mph - N/A   Partly Cloudy
2:53 PM 41.0 °F 32.8 °F 26.1 °F 55% 30.36 in 10.0 mi NNE 16.1 mph 23.0 mph N/A   Clear
3:53 PM 41.0 °F 33.5 °F 25.0 °F 53% 30.35 in 10.0 mi North 13.8 mph 21.9 mph N/A   Clear
4:53 PM 42.1 °F 34.9 °F 23.0 °F 47% 30.35 in 10.0 mi NNE 13.8 mph - N/A   Clear
5:53 PM 41.0 °F 34.3 °F 21.9 °F 47% 30.35 in 10.0 mi NNE 11.5 mph - N/A   Clear
6:53 PM 41.0 °F 34.7 °F 24.1 °F 51% 30.36 in 10.0 mi North 10.4 mph - N/A   Clear
7:53 PM 39.0 °F 31.4 °F 21.0 °F 49% 30.36 in 10.0 mi North 12.7 mph - N/A   Clear
8:53 PM 39.0 °F 30.3 °F 21.9 °F 50% 30.37 in 10.0 mi North 16.1 mph - N/A   Clear
9:53 PM 37.9 °F 28.9 °F 21.9 °F 53% 30.39 in 10.0 mi North 16.1 mph - N/A   Clear
10:53 PM 37.0 °F 27.0 °F 25.0 °F 62% 30.39 in 10.0 mi North 18.4 mph - N/A   Clear
11:53 PM 36.0 °F 26.7 °F 26.1 °F 67% 30.40 in 10.0 mi NNE 15.0 mph - N/A   Clear